FLOCK 3P-30 (41987 NORAD) Tracking and Keplerian Element Data

This shows tracking and keplerian element data for the satellite.

Feedback or suggestion? Click here.




ElementValue
Catalog41987
NameFLOCK 3P-30
Epoch Orbit5526
Epoch Day45.80733118
Epoch Year2018
RAAN111.4145
Inclination97.4665
Eccentricity0.00091
Argument of Perigee72.1038
Mean Anonmoly288.1191
Mean Motion15.23936293
Decay Rate1.747E-05
L11 41987U 17008AR 18045.80733118 .00001747 00000-0 75197-4 0 9996
L22 41987 97.4665 111.4145 0009100 72.1038 288.1191 15.23936293 55267

Live tracking and technical data element details for FLOCK 3P-30 (NORAD 41987). FLOCK 3P-30 can be tracked NOW for your location showing map with azimuth and elevation plus other details from your city location.

Track the satellite on the map from your city or location and see movement details for azimuth, elevation, latitude, longitude, range, height, and movement on the map or in text.







IsCatalogInMostPopularTable: catalog: 41987, numindb: 118
Update: records affected: 1



GetName: 41987 FLOCK 3P-30

Hit Count: updated at: Mon, 12 Nov 2018 18:36:04 GMT